When you browse on this site, cookies collect data to enhance your experience and personalize the content and advertising you see.
Visit our Privacy Policy to learn more. By continuing to use the site, you agree to this use of cookies and data.
  • In Belgien
  • Länderverzeichnis
  • Für 7 Tage
  • Wassertemperatur
  • Satellitenkarten
  • Wetterkarte
  • Widgets
  • user-avatar
    Anmelden

    Stündliche Wetter Durbuy

    Heute, 14 Dezember, Freitag

    Zeit Temperatur Niederschläge Wind Luftdruck Luftfeuchtigkeit
    00:00 -4°C° 0 mm 3 m/S 745 mmHg 81%
    01:00 -3°C° 0 mm 2 m/S 745 mmHg 82%
    02:00 -3°C° 0 mm 2 m/S 744 mmHg 83%
    03:00 -3°C° 0 mm 2 m/S 744 mmHg 84%
    04:00 -3°C° 0 mm 2 m/S 745 mmHg 85%
    05:00 -4°C° 0 mm 2 m/S 745 mmHg 86%
    06:00 -2°C° 0 mm 1 m/S 745 mmHg 87%
    07:00 -3°C° 0 mm 2 m/S 745 mmHg 84%
    08:00 -3°C° 0 mm 2 m/S 746 mmHg 80%
    09:00 -2°C° 0 mm 2 m/S 746 mmHg 77%
    10:00 -1°C° 0 mm 2 m/S 746 mmHg 71%
    11:00 -1°C° 0 mm 3 m/S 746 mmHg 65%
    12:00 0°C° 0 mm 3 m/S 746 mmHg 60%
    13:00 +1°C° 0 mm 2 m/S 746 mmHg 61%
    14:00 -1°C° 0 mm 2 m/S 746 mmHg 63%
    15:00 -1°C° 0 mm 2 m/S 746 mmHg 64%
    16:00 -1°C° 0 mm 2 m/S 747 mmHg 68%
    17:00 0°C° 0 mm 1 m/S 747 mmHg 71%
    18:00 -1°C° 0 mm 1 m/S 747 mmHg 75%
    19:00 -1°C° 0 mm 1 m/S 747 mmHg 76%
    20:00 -3°C° 0 mm 2 m/S 747 mmHg 78%
    21:00 -4°C° 0 mm 2 m/S 747 mmHg 80%
    22:00 -2°C° 0 mm 1 m/S 748 mmHg 81%
    23:00 -2°C° 0 mm 1 m/S 748 mmHg 82%

    Morgen, 15 Dezember, Samstag

    Zeit Temperatur Niederschläge Wind Luftdruck Luftfeuchtigkeit
    00:00 -2°C° 0 mm 1 m/S 748 mmHg 83%
    01:00 -2°C° 0 mm 1 m/S 748 mmHg 83%
    02:00 -2°C° 0 mm 1 m/S 748 mmHg 83%
    03:00 -2°C° 0 mm 1 m/S 748 mmHg 83%
    04:00 -2°C° 0 mm 1 m/S 747 mmHg 83%
    05:00 -4°C° 0 mm 2 m/S 747 mmHg 82%
    06:00 -4°C° 0 mm 2 m/S 747 mmHg 82%
    07:00 -4°C° 0 mm 2 m/S 747 mmHg 78%
    08:00 -4°C° 0 mm 3 m/S 747 mmHg 74%
    09:00 -4°C° 0 mm 3 m/S 747 mmHg 71%
    10:00 -2°C° 0 mm 3 m/S 747 mmHg 65%
    11:00 -2°C° 0 mm 4 m/S 746 mmHg 60%
    12:00 -1°C° 0 mm 4 m/S 746 mmHg 55%
    13:00 -1°C° 0 mm 4 m/S 745 mmHg 57%
    14:00 -1°C° 0 mm 4 m/S 745 mmHg 59%
    15:00 -2°C° 0 mm 4 m/S 744 mmHg 60%
    16:00 -2°C° 0 mm 5 m/S 743 mmHg 60%
    17:00 -3°C° 0 mm 6 m/S 743 mmHg 60%
    18:00 -3°C° 0 mm 6 m/S 742 mmHg 60%
    19:00 -3°C° 0.2 mm 7 m/S 741 mmHg 61%
    20:00 -2°C° 0.2 mm 7 m/S 741 mmHg 61%
    21:00 -2°C° 0.2 mm 7 m/S 740 mmHg 62%
    22:00 -2°C° 1.7 mm 7 m/S 739 mmHg 70%
    23:00 -2°C° 1.7 mm 8 m/S 738 mmHg 78%

    übermorgen, 16 Dezember, Sonntag

    Zeit Temperatur Niederschläge Wind Luftdruck Luftfeuchtigkeit
    00:00 -2°C° 1.7 mm 8 m/S 738 mmHg 87%
    01:00 -2°C° 0.5 mm 7 m/S 737 mmHg 88%
    02:00 -1°C° 0.5 mm 6 m/S 737 mmHg 89%
    03:00 0°C° 0.5 mm 5 m/S 737 mmHg 91%
    04:00 0°C° 0.1 mm 5 m/S 737 mmHg 92%
    05:00 0°C° 0.1 mm 5 m/S 737 mmHg 93%
    06:00 0°C° 0.1 mm 4 m/S 737 mmHg 94%
    07:00 +1°C° 0.1 mm 4 m/S 737 mmHg 94%
    08:00 +1°C° 0.1 mm 4 m/S 738 mmHg 95%
    09:00 +1°C° 0.1 mm 4 m/S 738 mmHg 95%
    10:00 +1°C° 0.3 mm 4 m/S 738 mmHg 95%
    11:00 +3°C° 0.3 mm 4 m/S 739 mmHg 95%
    12:00 +3°C° 0.3 mm 4 m/S 739 mmHg 95%
    13:00 +3°C° 0.3 mm 4 m/S 739 mmHg 95%
    14:00 +3°C° 0.3 mm 3 m/S 739 mmHg 95%
    15:00 +2°C° 0.3 mm 3 m/S 739 mmHg 96%
    16:00 +2°C° 0 mm 3 m/S 739 mmHg 96%
    17:00 +2°C° 0 mm 3 m/S 740 mmHg 96%
    18:00 +2°C° 0 mm 3 m/S 740 mmHg 96%
    19:00 +2°C° 0 mm 3 m/S 740 mmHg 96%
    20:00 +2°C° 0 mm 3 m/S 740 mmHg 96%
    21:00 +3°C° 0 mm 2 m/S 741 mmHg 96%
    22:00 +3°C° 0 mm 2 m/S 741 mmHg 96%
    23:00 +2°C° 0 mm 2 m/S 741 mmHg 96%

    17 Dezember, Montag

    Zeit Temperatur Niederschläge Wind Luftdruck Luftfeuchtigkeit
    00:00 +2°C° 0 mm 2 m/S 741 mmHg 96%
    01:00 +2°C° 0 mm 2 m/S 741 mmHg 96%
    02:00 +2°C° 0 mm 2 m/S 741 mmHg 96%
    03:00 +2°C° 0 mm 2 m/S 741 mmHg 96%
    04:00 +2°C° 0.1 mm 3 m/S 741 mmHg 95%
    05:00 +2°C° 0.1 mm 3 m/S 741 mmHg 95%
    06:00 +2°C° 0.1 mm 3 m/S 742 mmHg 94%
    07:00 +2°C° 0.6 mm 3 m/S 742 mmHg 94%
    08:00 +2°C° 0.6 mm 3 m/S 743 mmHg 94%
    09:00 +2°C° 0.6 mm 3 m/S 743 mmHg 94%
    10:00 +2°C° 0.5 mm 3 m/S 743 mmHg 94%
    11:00 +4°C° 0.5 mm 2 m/S 744 mmHg 94%
    12:00 +4°C° 0.5 mm 2 m/S 744 mmHg 94%
    13:00 +4°C° 0.1 mm 2 m/S 744 mmHg 95%
    14:00 +4°C° 0.1 mm 2 m/S 745 mmHg 96%
    15:00 +4°C° 0.1 mm 2 m/S 745 mmHg 96%
    16:00 +3°C° 0 mm 2 m/S 746 mmHg 97%
    17:00 +3°C° 0 mm 2 m/S 746 mmHg 97%
    18:00 +3°C° 0 mm 2 m/S 747 mmHg 97%
    19:00 +2°C° 0 mm 3 m/S 747 mmHg 97%
    20:00 +2°C° 0 mm 3 m/S 748 mmHg 96%
    21:00 +2°C° 0 mm 3 m/S 748 mmHg 96%
    22:00 +2°C° 0 mm 3 m/S 748 mmHg 96%
    23:00 +2°C° 0 mm 3 m/S 748 mmHg 96%

    18 Dezember, Dienstag

    Zeit Temperatur Niederschläge Wind Luftdruck Luftfeuchtigkeit
    00:00 +2°C° 0 mm 3 m/S 748 mmHg 95%
    01:00 +2°C° 0 mm 3 m/S 748 mmHg 95%
    02:00 +2°C° 0 mm 3 m/S 748 mmHg 95%
    03:00 +1°C° 0 mm 4 m/S 747 mmHg 95%
    04:00 +1°C° 0 mm 4 m/S 747 mmHg 95%
    05:00 +1°C° 0 mm 4 m/S 747 mmHg 95%
    06:00 +1°C° 0 mm 5 m/S 747 mmHg 95%
    07:00 +2°C° 0 mm 5 m/S 746 mmHg 93%
    08:00 +2°C° 0 mm 5 m/S 746 mmHg 92%
    09:00 +2°C° 0 mm 5 m/S 746 mmHg 90%
    10:00 +2°C° 0 mm 5 m/S 745 mmHg 85%
    11:00 +3°C° 0 mm 6 m/S 744 mmHg 80%
    12:00 +4°C° 0 mm 6 m/S 743 mmHg 75%
    13:00 +3°C° 0 mm 6 m/S 742 mmHg 74%
    14:00 +3°C° 0 mm 6 m/S 741 mmHg 72%
    15:00 +3°C° 0 mm 7 m/S 740 mmHg 70%
    16:00 +3°C° 0 mm 7 m/S 740 mmHg 71%
    17:00 +3°C° 0 mm 7 m/S 740 mmHg 72%
    18:00 +3°C° 0 mm 7 m/S 739 mmHg 73%
    19:00 +3°C° 0.4 mm 6 m/S 739 mmHg 76%
    20:00 +3°C° 0.4 mm 6 m/S 739 mmHg 79%
    21:00 +3°C° 0.4 mm 6 m/S 739 mmHg 83%
    22:00 +3°C° 0.7 mm 6 m/S 739 mmHg 86%
    23:00 +3°C° 0.7 mm 5 m/S 739 mmHg 89%

    19 Dezember, Mittwoch

    Zeit Temperatur Niederschläge Wind Luftdruck Luftfeuchtigkeit
    00:00 +5°C° 0.7 mm 5 m/S 739 mmHg 92%
    01:00 +5°C° 0 mm 5 m/S 739 mmHg 92%
    02:00 +5°C° 0 mm 4 m/S 739 mmHg 93%
    03:00 +5°C° 0 mm 4 m/S 739 mmHg 94%
    04:00 +5°C° 0 mm 4 m/S 739 mmHg 94%
    05:00 +4°C° 0 mm 4 m/S 739 mmHg 94%
    06:00 +3°C° 0 mm 5 m/S 739 mmHg 93%
    07:00 +3°C° 0 mm 5 m/S 739 mmHg 92%
    08:00 +5°C° 0 mm 5 m/S 739 mmHg 91%
    09:00 +4°C° 0 mm 6 m/S 739 mmHg 90%
    10:00 +4°C° 0.5 mm 6 m/S 739 mmHg 90%
    11:00 +4°C° 0.5 mm 6 m/S 739 mmHg 89%
    12:00 +4°C° 0.5 mm 6 m/S 739 mmHg 88%
    13:00 +5°C° 0.1 mm 5 m/S 739 mmHg 87%
    14:00 +5°C° 0.1 mm 5 m/S 739 mmHg 87%
    15:00 +5°C° 0.1 mm 4 m/S 739 mmHg 86%
    16:00 +5°C° 0 mm 5 m/S 739 mmHg 87%
    17:00 +3°C° 0 mm 5 m/S 739 mmHg 88%
    18:00 +3°C° 0 mm 5 m/S 739 mmHg 89%
    19:00 +3°C° 0 mm 5 m/S 739 mmHg 89%
    20:00 +3°C° 0 mm 5 m/S 739 mmHg 89%
    21:00 +3°C° 0 mm 6 m/S 739 mmHg 90%
    22:00 +3°C° 0.1 mm 6 m/S 739 mmHg 90%
    23:00 +3°C° 0.1 mm 6 m/S 738 mmHg 90%
    Mehr zeigen